Regional Weather Roundup
Issued by NWS

Home | Current Version | Previous Version | Text Only | Print | Product List | Glossary Off
Versions: 1 2 3 4 5 6 7 8 9 10 11 12 13 14 15 16 17 18 19 20 21 22 23 24 25 26 27 28 29 30 31 32 33 34 35 36 37 38 39 40 41 42 43 44 45 46 47 48 49 50

798
ASUS43 KFSD 241602
RWRSD

WEATHER ROUNDUP FOR SOUTH DAKOTA
NATIONAL WEATHER SERVICE SIOUX FALLS SD
1000 AM CST TUE JAN 24 2017

NOTE: "FAIR" INDICATES FEW OR NO CLOUDS BELOW 12,000 FEET WITH NO
SIGNIFICANT WEATHER AND/OR OBSTRUCTIONS TO VISIBILITY.


SDZ001>005-009-010-012>017-241700-
NORTHWEST AND NORTH CENTRAL SOUTH DAKOTA

CITY           SKY/WX    TMP DP  RH WIND       PRES   REMARKS
BUFFALO          N/A     24  20  84 NE8       29.76R WCI  15
FAITH            N/A     22  20  92 NE21      29.81R WCI   6
MOBRIDGE       LGT SNOW  25  18  74 N17G25    29.82S WCI  12
$$

SDZ012>016-024>037-041>051-057-063-072>074-241700-
SOUTHWEST AND SOUTH CENTRAL SOUTH DAKOTA

CITY           SKY/WX    TMP DP  RH WIND       PRES   REMARKS
RAPID CTY ARPT LGT SNOW  20  17  88 NW21      29.77S VSB 1   WCI   4
PIERRE         LGT SNOW  28  26  92 NE20      29.76S FOG     WCI  15
CUSTER         SNOW      15  11  83 VRB3      29.62R VSB 1/2
PINE RIDGE     SNOW      22  20  92 N13       29.69R VSB 1/2 WCI  10
SPEARFISH      SNOW      18  16  93 CALM      29.78S VSB 1/2
WINNER         LGT SNOW  30  28  92 E10       29.71R FOG     WCI  21
$$

SDZ004>011-016>023-039-040-241700-
NORTHEAST SOUTH DAKOTA

CITY           SKY/WX    TMP DP  RH WIND       PRES   REMARKS
ABERDEEN       LGT SNOW  28  24  85 NE10      29.86R FOG     WCI  19
WATERTOWN      CLOUDY    28  26  92 E14       29.80F WCI  17
BROOKINGS      CLOUDY    29  27  92 E15       29.79S FOG     WCI  18
SISSETON         N/A     31  29  92 E7        29.86F WCI  24
$$

SDZ017-020-022-023-036>040-048>070-241700-
SOUTHEAST SOUTH DAKOTA

CITY           SKY/WX    TMP DP  RH WIND       PRES   REMARKS
SIOUX FALLS    CLOUDY    31  29  92 E16       29.78R WCI  20
HURON          CLOUDY    31  29  92 E12       29.79F WCI  22
CHAMBERLAIN    LGT SNOW  32  32  99 E8        29.73S WCI  25
MITCHELL       CLOUDY    33  30  88 E15       29.76F WCI  23
YANKTON        CLOUDY    30  27  86 E14       29.74S WCI  20
$$

ABBREVIATIONS USED IN REMARKS
   TC - TEMPERATURE IN CELSIUS
  WCI - WIND CHILL INDEX
   HX - HEAT INDEX
  VSB - VISIBILITY





USA.gov is the U.S. government's official web portal to all federal, state and local government web resources and services.